Regional Weather Roundup
Issued by NWS

Home | Current Version | Previous Version | Graphics & Text | Print | Product List | Glossary Off
Versions: 1 2 3 4 5 6 7 8 9 10 11 12 13 14 15 16 17 18 19 20 21 22 23 24 25 26 27 28 29 30 31 32 33 34 35 36 37 38 39 40 41 42 43 44 45 46 47 48 49 50

272
ASUS43 KMKX 241321
RWRWI

WISCONSIN REGIONAL WEATHER ROUNDUP
NATIONAL WEATHER SERVICE MILWAUKEE/SULLIVAN WI
800 AM CDT FRI MAR 24 2017

NOTE: "FAIR" INDICATES FEW OR NO CLOUDS BELOW 12,000 FEET WITH NO
SIGNIFICANT WEATHER AND/OR OBSTRUCTIONS TO VISIBILITY.

WIZ001-002-006>008-014>016-023>028-241400-
NORTHWEST WISCONSIN

CITY           SKY/WX    TMP DP  RH WIND       PRES   REMARKS
SUPERIOR ARPT  CLOUDY    33  33 100 CALM      29.98R FOG
ASHLAND        CLOUDY    33  32  96 NW3       29.95S FOG
HAYWARD        CLOUDY    35  31  85 CALM      29.92R FOG
SIREN          CLOUDY    34  33  98 CALM      29.94R FOG
CUMBERLAND     CLOUDY    34  32  93 N6        29.91R FOG     WCI  29
RICE LAKE      HVY RAIN  35  35  98 CALM      29.92R
CHETEK         LGT RAIN  35  35 100 CALM      29.90R
LADYSMITH      LGT RAIN  36  35  98 N5        29.92R WCI  32
EAU CLAIRE     CLOUDY    37  37 100 N7        29.90R FOG     WCI  32
MENOMONIE      DRIZZLE   38  37  97 N5        29.91R WCI  34
NEW RICHMOND   DRIZZLE   36  36 100 N7        29.92R WCI  30
OSCEOLA        DRIZZLE   36  36 100 N5        29.96R WCI  32
$$

WIZ003>005-009-010-017-018-241400-
NORTH CENTRAL WISCONSIN

CITY           SKY/WX    TMP DP  RH WIND       PRES   REMARKS
MANITOWISH WTR CLOUDY    32  32 100 N5        29.89R FOG     WCI  27
ARBOR VITAE    LGT SNOW  34  33  96 CALM      29.87R VSB 3/4
WOODRUFF       LGT SNOW  34  33  96 CALM      29.87R VSB 3/4
RHINELANDER    LGT RAIN  34  34 100 CALM      29.90R FOG
EAGLE RIVER    MIX PCPN  32  32 100 N6        29.88R VSB 1   WCI  27
LAND O LAKES   CLOUDY    33  33 100 NW3       29.90R FOG
PHILLIPS       RAIN      32  32 100 N5        29.87F WCI  28
TOMAHAWK       RAIN      32  32  99 CALM      29.91R VSB 1
MEDFORD        RAIN      34  34  99 NE7       29.86F WCI  28
MERRILL        RAIN      34  34 100 CALM      29.89S VSB 1
$$

WIZ029-030-035-036-043>047-241400-
CENTRAL WISCONSIN

CITY           SKY/WX    TMP DP  RH WIND       PRES   REMARKS
WAUSAU         LGT RAIN  35  34  96 CALM      29.88R FOG
MOSINEE        FOG       34  34 100 NE5       29.89R VSB 1   WCI  30
MARSHFIELD     CLOUDY    36  36 100 NE8       29.85F FOG     WCI  30
STEVENS POINT  CLOUDY    34  34 100 NE6       29.89R FOG     WCI  28
WAUPACA        CLOUDY    38  36  93 N3        29.90R FOG
WAUTOMA        CLOUDY    38  37  97 NE3       29.89R FOG
WISC RAPIDS    CLOUDY    39  39 100 CALM      29.89R FOG
CAMP DOUGLAS   CLOUDY    39  37  93 N5        29.88R
$$

WIZ011>013-019>022-031-037>040-048>050-241400-
NORTHEAST WISCONSIN

CITY           SKY/WX    TMP DP  RH WIND       PRES   REMARKS
ANTIGO         LGT RAIN  32  32 100 CALM      29.90R VSB 1
SHAWANO        CLOUDY    36  34  93 CALM      29.91R FOG
OCONTO         CLOUDY    35  34  97 CALM      29.89F
STURGEON BAY   CLOUDY    36  36 100 SE5       29.89F FOG     WCI  32
GREEN BAY      CLOUDY    38  37  97 NE6       29.89S FOG     WCI  33
MANITOWOC      CLOUDY    39  36  89 S6        29.91R WCI  35
APPLETON       CLOUDY    37  37 100 VRB3      29.87R FOG
CLINTONVILLE   CLOUDY    34  34 100 NE3       29.90S FOG
OSHKOSH        CLOUDY    39  36  89 CALM      29.88R
$$

WIZ032>034-041-042-053>061-241400-
SOUTHWEST WISCONSIN

CITY           SKY/WX    TMP DP  RH WIND       PRES   REMARKS
LA CROSSE      CLOUDY    42  40  92 CALM      29.86R FOG
SPARTA         CLOUDY    39  38  96 E5        29.87R
VIROQUA        CLOUDY    42  39  92 SE9       29.83R
BOSCOBEL       CLOUDY    39  37  92 CALM      29.85S FOG
PRAIRIE DU CHI MOSUNNY   41  37  84 SE5       29.82F
PLATTEVILLE    CLOUDY    46  44  93 SE7       29.85S
$$

WIZ056-057-062-063-064-067-068-241400-
SOUTH CENTRAL WISCONSIN

CITY           SKY/WX    TMP DP  RH WIND       PRES   REMARKS
REEDSBURG      MOSUNNY   40  38  93 SE3       29.85R
BARABOO/DELLS  MOSUNNY   40  36  84 SE3       29.86R
LONE ROCK      MOSUNNY   41  38  89 E5        29.85F FOG
MINERAL POINT  CLOUDY    43  43 100 SE6       29.84F
MADISON        CLOUDY    41  39  93 CALM      29.87S
MIDDLETON      CLOUDY    42  40  90 CALM      29.88S
WATERTOWN      CLOUDY    42  40  92 E5        29.89R
MONROE         CLOUDY    46  43  87 CALM      29.87R
JANESVILLE     PTSUNNY   48  43  81 CALM      29.88R
$$

WIZ051-052-058>065-066-070>072-241400-
SOUTHEAST WISCONSIN

CITY           SKY/WX    TMP DP  RH WIND       PRES   REMARKS
MILWAUKEE      PTSUNNY   42  35  76 CALM      29.92R
WAUKESHA       PTSUNNY   46  39  76 CALM      29.91R
MILWAUKEE/TIMM PTSUNNY   43  36  75 CALM      29.91R
RACINE         CLOUDY    45  38  76 N6        29.93R
KENOSHA        MOSUNNY   52  43  71 W3        29.90R
FOND DU LAC    CLOUDY    41  35  79 SE3       29.88S
SHEBOYGAN      PTSUNNY   37  35  92 S3        29.89F FOG
WEST BEND      CLOUDY    39  37  93 CALM      29.89F
JUNEAU         CLOUDY    41  38  87 E5        29.89S
$$

LSZ147-162-241400-
LAKE SUPERIOR

STATION/POSITION TIME  TEMP    WIND        PRES    WAVE
                       AIR SEA DIR/SP/G            HT/PER
                 (UTC) (F)     (DEG/KT/KT) (MB)    (FT/S)
DEVILS ISLAND    1200   33     230/  6/  6 1014.7R
PORT WING        1240   33     250/  1/  2 1014.9R
SAXON HARBOR     1240   33      CALM  /  2 1013.5S
$$

LMZ867-665-643>646-241400-
LAKE MICHIGAN

STATION/POSITION TIME  TEMP    WIND        PRES    WAVE
                       AIR SEA DIR/SP/G            HT/PER
                 (UTC) (F)     (DEG/KT/KT) (MB)    (FT/S)
CHAMBERS ISLAND  1240   34      CALM  /  5 1012.2S
NORTHPORT PIER   1240   36     290/  1/  7 1013.2R
SISTER BAY       1235   35     350/  5/  5   N/A
KEWAUNEE LAKESHO 1300   37      CALM  /  2 1012.2
SHEBOYGAN LAKESH 1300   38     180/  4/  4 1012.6F
PORT WASHINGTON  1240   40      CALM  /  2 1013.9R
MILWAUKEE LAKESH 1300   40      40/  4/  5   N/A
KENOSHA   LAKESH 1300   44     360/ 10/ 14 1012.9
$$

TC  - TEMPERATURE IN CELSIUS
VSB - VISIBILITY IN STATUTE MILES
WCI - WIND CHILL INDEX
HX  - HEAT INDEX





USA.gov is the U.S. government's official web portal to all federal, state and local government web resources and services.